[[{"header":{"parameterUnit":"m.s-1","parameterCategory":1,"la1":30.2991,"la2":30.254,"lo1":-89.0895,"lo2":-89.0444,"dy":0.0017,"dx":0.0017,"nx":28,"ny":28,"refTime":"2025-04-12T21:00:00:Z","depth":0,"parameterNumber":2,"parameterNumberName":"U-component_of_WINDS"},"data":[0,0,0,0,0,0,0,0,0,0,0,0,0,0,0,0,0,0,0,0,0,0,0,0,0,0,0,0,0,0,0,0,0,0,0,0,0,0,0,0,0,0,0,0,0,0,0,0,0,0,0,0,0,0,0,0,0,0,-0.0712,-0.0713,0,-0.0779,-0.078,-0.0781,-0.081,-0.081,-0.081,-0.081,-0.0879,-0.088,-0.0882,0,0,0,0,0,0,0,0,0,0,0,0,0,-0.0607,-0.0609,-0.0712,-0.0713,-0.0713,-0.0779,-0.078,-0.0781,-0.081,-0.081,-0.081,-0.081,-0.0878,-0.088,-0.0883,0,0,0,0,0,0,0,0,0,0,0,0,0,-0.0661,-0.061,-0.0712,-0.0736,-0.0739,-0.0779,-0.078,-0.0781,-0.081,-0.081,-0.081,-0.081,-0.0877,-0.088,-0.0883,-0.0904,0,0,-0.0892,-0.0893,0,0,0,0,0,0,0,0,-0.0658,-0.0665,-0.0732,-0.0734,-0.0738,-0.0786,-0.0768,-0.0822,-0.081,-0.0783,-0.081,-0.081,-0.0848,-0.0853,-0.0866,-0.0907,-0.091,-0.0892,-0.0894,-0.0895,-0.0896,0,0,0,0,0,0,0,-0.0655,-0.0663,-0.0739,-0.0733,-0.0736,-0.0743,-0.0751,-0.0779,-0.0816,-0.0786,-0.0788,-0.0795,-0.085,-0.0863,-0.0868,-0.0911,-0.0892,-0.0894,-0.0896,-0.0897,-0.0971,-0.0971,0,0,0,0,0,0,-0.0647,-0.0659,-0.0736,-0.0741,-0.0697,-0.0745,-0.0754,-0.0771,-0.0815,-0.0822,-0.0796,-0.0797,-0.0859,-0.0865,-0.0871,-0.0898,-0.0895,-0.0898,-0.0899,-0.0971,-0.0971,-0.0971,0,0,0,0,0,0,-0.0645,-0.0654,-0.0734,-0.0701,-0.0711,-0.0747,-0.0766,-0.0772,-0.0786,-0.0823,-0.083,-0.0803,-0.0859,-0.0866,-0.0895,-0.09,-0.0899,-0.0901,-0.097,-0.0971,-0.0971,-0.0952,0,0,0,0,0,0,-0.0641,-0.0653,-0.0661,-0.0701,-0.0713,-0.0757,-0.0767,-0.0774,-0.0791,-0.0793,-0.0832,-0.0838,-0.0859,-0.0891,-0.0898,-0.0904,-0.0904,-0.097,-0.097,-0.0971,-0.0952,-0.0951,-0.0951,0,0,0,0,0,-0.0638,-0.0653,-0.0661,-0.0671,-0.0724,-0.0758,-0.0765,-0.0789,-0.0791,-0.08,-0.0823,-0.0837,-0.0898,-0.0893,-0.0902,-0.0909,-0.097,-0.097,-0.0971,-0.0952,-0.0951,-0.0951,0,0,0,0,0,0,-0.0613,-0.0659,-0.0668,-0.0697,-0.0723,-0.0762,-0.0774,-0.0787,-0.0813,-0.0814,-0.0843,-0.0851,-0.0877,-0.0896,-0.0889,-0.0931,-0.0935,-0.0937,-0.0918,-0.0918,-0.0917,-0.0912,-0.0906,0,0,0,0,0,-0.0611,-0.0635,-0.0673,-0.0694,-0.0707,-0.0738,-0.0754,-0.077,-0.0798,-0.0809,-0.0835,-0.0862,-0.0887,-0.0903,-0.0929,-0.0954,-0.0963,-0.0963,-0.0963,-0.0962,-0.0964,-0.0978,-0.0979,-0.0973,-0.0973,-0.0973,0,0,-0.0608,-0.0635,-0.0648,-0.069,-0.0713,-0.0736,-0.0747,-0.0772,-0.0789,-0.0813,-0.0842,-0.0861,-0.0893,-0.092,-0.0933,-0.0936,-0.0967,-0.0963,-0.0962,-0.0964,-0.0979,-0.0979,-0.098,-0.0973,-0.0973,-0.0973,0,0,-0.0613,-0.0636,-0.0656,-0.0678,-0.0711,-0.0732,-0.0736,-0.0774,-0.0788,-0.0817,-0.0835,-0.0855,-0.0899,-0.092,-0.0937,-0.0949,-0.0961,-0.0956,-0.0953,-0.0966,-0.0967,-0.0967,-0.0971,-0.0973,-0.0957,-0.0957,-0.0957,0,-0.0604,-0.064,-0.0665,-0.0688,-0.0706,-0.0728,-0.0749,-0.0769,-0.0808,-0.082,-0.0823,-0.0877,-0.09,-0.0932,-0.0934,-0.0947,-0.0953,-0.0952,-0.0965,-0.0966,-0.0966,-0.0971,-0.0972,-0.0956,-0.0957,-0.0957,-0.0957,0,-0.0627,-0.0651,-0.0664,-0.0701,-0.0721,-0.0742,-0.077,-0.0786,-0.0801,-0.0821,-0.0849,-0.0877,-0.0908,-0.0917,-0.0931,-0.0951,-0.0952,-0.0959,-0.0964,-0.0966,-0.097,-0.0972,-0.0955,-0.0956,-0.0956,-0.0956,0,0,-0.062,-0.067,-0.0674,-0.0692,-0.0729,-0.0749,-0.0771,-0.0801,-0.0814,-0.0841,-0.086,-0.0895,-0.0902,-0.0921,-0.0938,-0.0949,-0.0956,-0.0955,-0.0957,-0.0955,-0.0979,-0.0974,-0.0975,-0.0965,-0.0965,-0.0966,-0.0977,0,-0.063,-0.0671,-0.0694,-0.0725,-0.0748,-0.0769,-0.0788,-0.0813,-0.0832,-0.0854,-0.0874,-0.0899,-0.0906,-0.0918,-0.093,-0.0953,-0.0962,-0.0952,-0.0983,-0.0983,-0.0975,-0.0978,-0.0972,-0.0981,-0.0978,-0.0979,-0.0979,0,-0.0648,-0.0673,-0.0707,-0.0742,-0.0752,-0.0769,-0.0798,-0.0819,-0.0847,-0.086,-0.088,-0.0897,-0.092,-0.0923,-0.0955,-0.0948,-0.0962,-0.0974,-0.0975,-0.098,-0.0982,-0.0982,-0.0985,-0.0986,-0.0982,-0.0982,-0.0982,0,-0.0639,-0.0682,-0.0708,-0.0721,-0.0762,-0.0774,-0.0791,-0.082,-0.0836,-0.0861,-0.0872,-0.09,-0.0915,-0.0936,-0.0959,-0.0959,-0.0989,-0.0993,-0.1,-0.0999,-0.1006,-0.1006,-0.1011,-0.1014,-0.1014,-0.1014,-0.1014,0,-0.0648,-0.0668,-0.0704,-0.072,-0.0742,-0.0768,-0.0789,-0.0809,-0.0833,-0.0853,-0.0872,-0.089,-0.0919,-0.094,-0.0958,-0.0982,-0.0989,-0.1,-0.1004,-0.0998,-0.0997,-0.1008,-0.1008,-0.1014,-0.1014,-0.1014,-0.1014,0,-0.0642,-0.0667,-0.0697,-0.0733,-0.0742,-0.0757,-0.0788,-0.0804,-0.0823,-0.0848,-0.0855,-0.0885,-0.0911,-0.0936,-0.097,-0.0983,-0.1006,-0.1012,-0.0997,-0.1,-0.1005,-0.1004,-0.1018,-0.1021,-0.1022,-0.1021,-0.1021,0,-0.0647,-0.0663,-0.07,-0.0715,-0.0732,-0.0755,-0.0772,-0.0797,-0.0814,-0.0847,-0.0858,-0.0885,-0.0909,-0.0949,-0.0974,-0.1,-0.1007,-0.101,-0.1011,-0.1004,-0.1007,-0.1006,-0.1007,-0.101,-0.1009,-0.1009,-0.1009,0,-0.0652,-0.0664,-0.0687,-0.0715,-0.0735,-0.0758,-0.0782,-0.0792,-0.0822,-0.0839,-0.0866,-0.0884,-0.0919,-0.0946,-0.0975,-0.0992,-0.1005,-0.1008,-0.1011,-0.1006,-0.0996,-0.1001,-0.0995,-0.1008,-0.1008,-0.1008,-0.1009,-0.1009,-0.0652,-0.0667,-0.0695,-0.0721,-0.0741,-0.0763,-0.0779,-0.08,-0.0823,-0.0854,-0.0867,-0.0894,-0.0921,-0.0961,-0.0978,-0.0999,-0.1002,-0.1007,-0.1008,-0.1009,-0.1007,-0.0992,-0.1004,-0.1004,-0.1005,-0.1005,-0.1005,0,-0.0658,-0.0677,-0.0701,-0.0733,-0.0753,-0.0764,-0.079,-0.0806,-0.0829,-0.0853,-0.0876,-0.0906,-0.0931,-0.0958,-0.0985,-0.0996,-0.1003,-0.1003,-0.1002,-0.1006,-0.1003,-0.0998,-0.0997,-0.0997,-0.0997,-0.0997,-0.0997,-0.0997,-0.0664,-0.0689,-0.0704,-0.0739,-0.0758,-0.0785,-0.0799,-0.0819,-0.0838,-0.0871,-0.0892,-0.0909,-0.0934,-0.0963,-0.0986,-0.0993,-0.1002,-0.1,-0.1009,-0.1006,-0.1006,-0.1007,-0.1002,-0.1002,-0.1002,-0.101,-0.101,-0.1011]},{"header":{"parameterUnit":"m.s-1","parameterCategory":1,"la1":30.2991,"la2":30.254,"lo1":-89.0895,"lo2":-89.0444,"dy":0.0017,"dx":0.0017,"nx":28,"ny":28,"refTime":"2025-04-12T21:00:00:Z","depth":0,"parameterNumber":3,"parameterNumberName":"V-component_of_WINDS"},"data":[0,0,0,0,0,0,0,0,0,0,0,0,0,0,0,0,0,0,0,0,0,0,0,0,0,0,0,0,0,0,0,0,0,0,0,0,0,0,0,0,0,0,0,0,0,0,0,0,0,0,0,0,0,0,0,0,0,0,-3.0984,-3.0985,0,-3.1106,-3.1108,-3.1109,-3.1074,-3.1071,-3.1069,-3.1067,-3.1189,-3.1195,-3.12,0,0,0,0,0,0,0,0,0,0,0,0,0,-3.0718,-3.0723,-3.0984,-3.0985,-3.0987,-3.1106,-3.1108,-3.1109,-3.1074,-3.1071,-3.1068,-3.1065,-3.1187,-3.1194,-3.1201,0,0,0,0,0,0,0,0,0,0,0,0,0,-3.0836,-3.0725,-3.0983,-3.0984,-3.0985,-3.1106,-3.1108,-3.111,-3.1075,-3.1071,-3.1068,-3.1064,-3.1185,-3.1193,-3.1202,-3.1328,0,0,-3.1227,-3.1231,0,0,0,0,0,0,0,0,-3.0829,-3.0846,-3.0982,-3.0984,-3.0986,-3.1071,-3.1059,-3.1183,-3.1076,-3.1041,-3.1067,-3.1062,-3.1153,-3.1164,-3.1195,-3.1334,-3.1339,-3.1228,-3.1233,-3.1237,-3.1239,0,0,0,0,0,0,0,-3.0821,-3.084,-3.1032,-3.0984,-3.0986,-3.0977,-3.099,-3.1082,-3.1116,-3.1044,-3.1041,-3.1056,-3.1153,-3.1187,-3.1197,-3.1341,-3.1228,-3.1235,-3.124,-3.1244,-3.1592,-3.1596,0,0,0,0,0,0,-3.0812,-3.0834,-3.1028,-3.1036,-3.0897,-3.0985,-3.0999,-3.1047,-3.1115,-3.1122,-3.106,-3.1054,-3.1174,-3.1188,-3.1201,-3.1355,-3.1237,-3.1244,-3.1249,-3.1588,-3.1593,-3.1597,0,0,0,0,0,0,-3.0807,-3.083,-3.1023,-3.0934,-3.0958,-3.0994,-3.1048,-3.1052,-3.1086,-3.1127,-3.1133,-3.1088,-3.1172,-3.119,-3.1298,-3.1359,-3.1248,-3.1256,-3.1583,-3.1589,-3.1595,-3.1664,0,0,0,0,0,0,-3.0799,-3.0828,-3.0877,-3.0936,-3.0963,-3.1118,-3.1052,-3.1057,-3.11,-3.1095,-3.1155,-3.1162,-3.117,-3.1285,-3.1306,-3.1369,-3.1262,-3.1577,-3.1586,-3.1593,-3.1656,-3.1672,-3.1685,0,0,0,0,0,-3.079,-3.0891,-3.088,-3.0903,-3.1025,-3.1122,-3.1137,-3.1146,-3.1105,-3.1155,-3.1182,-3.116,-3.1349,-3.1297,-3.132,-3.1386,-3.1574,-3.1583,-3.1593,-3.165,-3.1669,-3.1685,0,0,0,0,0,0,-3.0837,-3.0898,-3.0887,-3.101,-3.1061,-3.1116,-3.1178,-3.1165,-3.1228,-3.122,-3.1227,-3.1241,-3.1352,-3.1379,-3.132,-3.1513,-3.1455,-3.147,-3.1491,-3.1509,-3.1523,-3.1515,-3.1269,0,0,0,0,0,-3.0862,-3.0936,-3.0985,-3.1089,-3.1115,-3.1143,-3.1185,-3.1187,-3.124,-3.1261,-3.1296,-3.1347,-3.1419,-3.1465,-3.1533,-3.166,-3.1673,-3.1717,-3.1731,-3.1742,-3.1755,-3.1825,-3.1846,-3.1629,-3.1629,-3.1628,0,0,-3.0914,-3.0956,-3.1003,-3.11,-3.1139,-3.1216,-3.1161,-3.1243,-3.13,-3.1273,-3.1378,-3.1406,-3.1463,-3.1582,-3.1636,-3.1608,-3.1818,-3.1755,-3.1764,-3.177,-3.1837,-3.1858,-3.1876,-3.1635,-3.1634,-3.1633,0,0,-3.1048,-3.1087,-3.1179,-3.122,-3.1282,-3.1299,-3.1321,-3.1379,-3.1396,-3.1502,-3.1484,-3.155,-3.1672,-3.1715,-3.1752,-3.1903,-3.1886,-3.1925,-3.2,-3.2069,-3.2086,-3.2101,-3.2156,-3.2175,-3.1937,-3.1938,-3.1938,0,-3.1104,-3.1219,-3.1227,-3.1312,-3.1355,-3.1336,-3.1429,-3.1468,-3.1548,-3.1578,-3.1546,-3.17,-3.1738,-3.1866,-3.1903,-3.1934,-3.1959,-3.1918,-3.2083,-3.2098,-3.2112,-3.2165,-3.2185,-3.1942,-3.1942,-3.1941,-3.1941,0,-3.1286,-3.1366,-3.1432,-3.1512,-3.1563,-3.1651,-3.1672,-3.1722,-3.172,-3.1741,-3.1849,-3.1893,-3.197,-3.2,-3.1998,-3.2129,-3.211,-3.2081,-3.2023,-3.2137,-3.2187,-3.2207,-3.1948,-3.1947,-3.1945,-3.1944,0,0,-3.1453,-3.1537,-3.1561,-3.1597,-3.1664,-3.1726,-3.1813,-3.189,-3.1933,-3.1989,-3.2063,-3.2167,-3.2141,-3.2183,-3.2186,-3.2246,-3.2364,-3.2209,-3.221,-3.2237,-3.2511,-3.2534,-3.2557,-3.2352,-3.2356,-3.2359,-3.2507,0,-3.1593,-3.1748,-3.1758,-3.1899,-3.1973,-3.1956,-3.2032,-3.2081,-3.2103,-3.2169,-3.2192,-3.2267,-3.2226,-3.2251,-3.231,-3.2337,-3.2419,-3.2326,-3.2421,-3.2424,-3.2408,-3.2583,-3.2607,-3.2744,-3.2526,-3.2529,-3.2532,0,-3.1778,-3.1841,-3.1989,-3.2047,-3.2078,-3.2147,-3.2218,-3.2281,-3.2337,-3.2348,-3.2397,-3.2391,-3.2481,-3.242,-3.2543,-3.248,-3.2519,-3.2538,-3.2544,-3.2554,-3.2485,-3.2598,-3.2788,-3.2809,-3.2562,-3.2559,-3.2557,0,-3.1886,-3.2008,-3.2113,-3.2144,-3.2214,-3.2263,-3.2294,-3.2345,-3.2391,-3.2453,-3.2483,-3.2554,-3.2593,-3.2648,-3.2661,-3.2616,-3.2785,-3.2725,-3.2797,-3.2797,-3.2834,-3.2832,-3.3034,-3.2858,-3.2858,-3.2857,-3.2857,0,-3.2042,-3.2133,-3.2163,-3.2227,-3.2329,-3.2339,-3.244,-3.2468,-3.2514,-3.2583,-3.2572,-3.2637,-3.2651,-3.2719,-3.273,-3.2831,-3.2848,-3.286,-3.2862,-3.2862,-3.2861,-3.2888,-3.2879,-3.2863,-3.2861,-3.286,-3.2859,0,-3.218,-3.2203,-3.2317,-3.2374,-3.239,-3.2463,-3.2512,-3.2574,-3.2594,-3.2682,-3.2703,-3.2736,-3.2815,-3.2834,-3.2928,-3.2936,-3.3055,-3.3048,-3.3037,-3.3037,-3.3109,-3.3102,-3.3336,-3.3368,-3.317,-3.3172,-3.3174,0,-3.2279,-3.2349,-3.2414,-3.2461,-3.2495,-3.2569,-3.2616,-3.2629,-3.2678,-3.2747,-3.2801,-3.2879,-3.2942,-3.307,-3.3101,-3.3173,-3.3168,-3.3245,-3.3178,-3.3176,-3.317,-3.3166,-3.3173,-3.3257,-3.3259,-3.3261,-3.3263,0,-3.2452,-3.246,-3.2529,-3.2602,-3.2659,-3.2717,-3.2772,-3.281,-3.2831,-3.2887,-3.2969,-3.3018,-3.3115,-3.3193,-3.3265,-3.3296,-3.3284,-3.3283,-3.3304,-3.3305,-3.3296,-3.3303,-3.3073,-3.3278,-3.3276,-3.3275,-3.3274,-3.3274,-3.2574,-3.2636,-3.2692,-3.277,-3.2813,-3.2865,-3.2927,-3.2956,-3.3024,-3.3105,-3.3108,-3.3197,-3.3251,-3.3348,-3.3383,-3.3453,-3.3429,-3.3459,-3.3466,-3.3474,-3.3481,-3.3285,-3.3466,-3.3465,-3.3465,-3.3465,-3.3464,0,-3.2747,-3.2783,-3.2854,-3.2933,-3.2993,-3.2977,-3.3037,-3.3089,-3.3168,-3.322,-3.3283,-3.3377,-3.3453,-3.3491,-3.3566,-3.3614,-3.361,-3.3634,-3.3631,-3.3638,-3.3497,-3.3472,-3.3636,-3.3636,-3.3636,-3.3636,-3.3636,-3.3636,-3.2845,-3.2949,-3.2965,-3.3091,-3.3125,-3.3214,-3.325,-3.3298,-3.334,-3.3446,-3.3509,-3.3534,-3.358,-3.3659,-3.3728,-3.3737,-3.3765,-3.3792,-3.3798,-3.3665,-3.3648,-3.3631,-3.3608,-3.3798,-3.3798,-3.3933,-3.3935,-3.3936]}]]